User: anonymous   Login
Location: Bothell
(47.7630°N, 122.2040°W)
Time: 17:11:02
(UTC-07:00)
Language:

Oscar 16 - Orbit

View from above orbital plane
View from above orbital plane
View from above satellite
View from above satellite

Ground track
Ground track

The orbit data is extracted from the following two-line orbital elements,

1 20439U 90005D   16270.73817613  .00000041  00000-0  31426-4 0  9999
2 20439  98.5794 206.1935 0010041 215.2667 203.8522 14.32647624393683
Epoch (UTC): 26 September 2016 17:42:58
Eccentricity: 0.0010041
inclination: 98.5794°
perigee height: 776 km
apogee height: 790 km
right ascension of ascending node: 206.1935°
argument of perigee: 215.2667°
revolutions per day: 14.32647624
mean anomaly at epoch: 203.8522°
orbit number at epoch: 39368

The dashed part of the orbit path shows where the satellite is in the earth's shadow,  

DLR